Location: Newark
(54.4333°N, 18.5500°E)
Time: 04:31:00
(UTC+00:00)

Envisat - Pass Details

Date: 15 December 2019
Orbit: 764 x 766 km, 98.1° (Epoch: 22 January)

Event Time Altitude Azimuth Distance (km) Brightness Sun altitude
Rises 17:52:48 0° 208° (SSW) 3,225 6.6 -29.1°
Reaches altitude 10° 17:55:41 10° 225° (SW) 2,304 6.0 -29.5°
Maximum altitude 17:59:24 20° 272° (W) 1,716 5.5 -30.1°
Drops below altitude 10° 18:03:08 10° 319° (NW) 2,317 6.0 -30.6°
Sets 18:06:04 0° 336° (NNW) 3,248 6.6 -31.0°
